| time (UTC) | temp F | wind direction | speed MPH | gust MPH | rain 1hr in | rain 24hr in | rain mn in | humidity % | barometer mb |
| 20260506222023 | 45 | 9 | 10.0 | 14.0 | 0.01 | 0.74 | 0.74 | 93 | 1007.9 |
| 20260506222004 | 46 | 15 | 11.0 | 13.0 | 0.01 | 0.73 | 0.74 | 94 | 1007.9 |
| 20260506221539 | 45 | 26 | 11.0 | 15.0 | 0.01 | 0.74 | 0.74 | 93 | 1007.9 |
| 20260506221505 | 45 | 21 | 11.0 | 14.0 | 0.00 | 0.73 | 0.73 | 94 | 1007.8 |
| 20260506221022 | 45 | 17 | 12.0 | 15.0 | 0.00 | 0.73 | 0.73 | 93 | 1007.9 |
| 20260506221006 | 45 | 7 | 13.0 | 15.0 | 0.00 | 0.73 | 0.73 | 94 | 1007.8 |
| 20260506220522 | 45 | 26 | 13.0 | 15.0 | 0.00 | 0.73 | 0.73 | 93 | 1007.9 |
| 20260506220044 | 45 | 21 | 11.0 | 14.0 | 0.00 | 0.73 | 0.73 | 93 | 1007.9 |
| 20260506215522 | 45 | 35 | 11.0 | 13.0 | 0.00 | 0.73 | 0.73 | 94 | 1008.0 |
| 20260506215505 | 45 | 37 | 11.0 | 13.0 | 0.00 | 0.73 | 0.73 | 94 | 1007.7 |
| 20260506215022 | 45 | 21 | 8.0 | 13.0 | 0.00 | 0.73 | 0.73 | 94 | 1008.1 |
| 20260506215006 | 45 | 21 | 9.0 | 12.0 | 0.00 | 0.73 | 0.73 | 94 | 1008.1 |
| 20260506214538 | 45 | 21 | 10.0 | 13.0 | 0.00 | 0.73 | 0.73 | 93 | 1008.2 |
| 20260506214504 | 45 | 13 | 11.0 | 12.0 | 0.00 | 0.73 | 0.73 | 94 | 1008.1 |
| 20260506214022 | 45 | 21 | 10.0 | 14.0 | 0.00 | 0.73 | 0.73 | 93 | 1008.2 |
| 20260506214005 | 45 | 21 | 11.0 | 13.0 | 0.00 | 0.73 | 0.73 | 94 | 1008.0 |
| 20260506213521 | 45 | 17 | 10.0 | 14.0 | 0.00 | 0.73 | 0.73 | 93 | 1008.0 |
| 20260506213036 | 45 | 31 | 11.0 | 14.0 | 0.01 | 0.73 | 0.73 | 93 | 1007.8 |
| 20260506213005 | 45 | 26 | 11.0 | 14.0 | 0.01 | 0.73 | 0.73 | 94 | 1007.7 |
| 20260506212525 | 45 | 18 | 11.0 | 15.0 | 0.01 | 0.73 | 0.73 | 93 | 1007.8 |
| 20260506212504 | 45 | 21 | 12.0 | 15.0 | 0.01 | 0.73 | 0.73 | 94 | 1007.7 |
| 20260506212023 | 44 | 26 | 12.0 | 15.0 | 0.01 | 0.73 | 0.73 | 93 | 1007.7 |
| 20260506212005 | 45 | 31 | 13.0 | 15.0 | 0.01 | 0.73 | 0.73 | 94 | 1007.6 |
| 20260506211538 | 45 | 15 | 12.0 | 15.0 | 0.02 | 0.73 | 0.73 | 93 | 1007.6 |
| 20260506211505 | 45 | 21 | 13.0 | 14.0 | 0.02 | 0.73 | 0.73 | 94 | 1007.5 |
| 20260506211023 | 44 | 21 | 11.0 | 15.0 | 0.02 | 0.73 | 0.73 | 93 | 1007.7 |
| 20260506211005 | 45 | 21 | 12.0 | 15.0 | 0.02 | 0.73 | 0.73 | 94 | 1007.6 |
| 20260506210525 | 45 | 16 | 13.0 | 16.0 | 0.02 | 0.73 | 0.73 | 93 | 1007.6 |
| 20260506210504 | 45 | 21 | 13.0 | 16.0 | 0.02 | 0.73 | 0.73 | 94 | 1007.5 |
| 20260506210036 | 44 | 21 | 13.0 | 16.0 | 0.02 | 0.73 | 0.73 | 93 | 1007.5 |
| 20260506210005 | 45 | 21 | 14.0 | 16.0 | 0.02 | 0.71 | 0.73 | 94 | 1007.4 |
| 20260506205522 | 44 | 26 | 13.0 | 16.0 | 0.02 | 0.88 | 0.73 | 93 | 1007.4 |
| 20260506205506 | 45 | 26 | 14.0 | 16.0 | 0.02 | 0.71 | 0.73 | 94 | 1007.3 |
| 20260506205022 | 44 | 21 | 14.0 | 16.0 | 0.02 | 0.88 | 0.73 | 93 | 1007.4 |
| 20260506204538 | 44 | 26 | 14.0 | 16.0 | 0.02 | 0.88 | 0.73 | 93 | 1007.5 |
| 20260506204506 | 45 | 26 | 14.0 | 16.0 | 0.02 | 0.71 | 0.73 | 94 | 1007.4 |
| 20260506204025 | 44 | 26 | 13.0 | 15.0 | 0.03 | 0.88 | 0.73 | 93 | 1007.5 |
| 20260506203522 | 45 | 21 | 13.0 | 15.0 | 0.03 | 0.88 | 0.73 | 93 | 1007.5 |
| 20260506203505 | 45 | 21 | 13.0 | 15.0 | 0.03 | 0.71 | 0.73 | 93 | 1007.4 |
| 20260506203108 | 45 | 26 | 12.0 | 15.0 | 0.02 | 0.87 | 0.72 | 93 | 1007.4 |
| 20260506202523 | 45 | 18 | 11.0 | 15.0 | 0.02 | 0.87 | 0.72 | 93 | 1007.4 |
| 20260506202503 | 45 | 14 | 11.0 | 15.0 | 0.02 | 0.73 | 0.72 | 94 | 1007.4 |
| 20260506202022 | 45 | 21 | 12.0 | 14.0 | 0.02 | 0.87 | 0.72 | 93 | 1007.4 |
| 20260506202002 | 45 | 18 | 12.0 | 14.0 | 0.02 | 0.73 | 0.72 | 93 | 1007.4 |
| 20260506201536 | 45 | 21 | 10.0 | 13.0 | 0.01 | 0.86 | 0.71 | 93 | 1007.5 |
| 20260506201502 | 45 | 21 | 11.0 | 13.0 | 0.01 | 0.79 | 0.71 | 93 | 1007.4 |
| 20260506201022 | 45 | 16 | 11.0 | 13.0 | 0.01 | 0.86 | 0.71 | 93 | 1007.6 |
| 20260506201002 | 45 | 21 | 12.0 | 13.0 | 0.01 | 0.86 | 0.71 | 93 | 1007.5 |
| 20260506200522 | 45 | 11 | 10.0 | 13.0 | 0.01 | 0.86 | 0.71 | 93 | 1007.5 |
| 20260506200045 | 44 | 26 | 9.0 | 14.0 | 0.02 | 0.86 | 0.71 | 93 | 1007.4 |
| 20260506200003 | 45 | 16 | 10.0 | 13.0 | 0.02 | 0.84 | 0.71 | 93 | 1007.5 |
| 20260506195522 | 44 | 14 | 11.0 | 14.0 | 0.03 | 0.86 | 0.71 | 92 | 1007.5 |
| 20260506195502 | 45 | 13 | 11.0 | 14.0 | 0.03 | 0.84 | 0.71 | 93 | 1007.4 |
| 20260506195022 | 44 | 21 | 10.0 | 14.0 | 0.03 | 0.86 | 0.71 | 92 | 1007.6 |
| 20260506194535 | 44 | 357 | 9.0 | 12.0 | 0.04 | 0.86 | 0.71 | 92 | 1007.6 |
| 20260506194505 | 45 | 9 | 10.0 | 12.0 | 0.04 | 0.84 | 0.70 | 93 | 1007.5 |
| 20260506194021 | 44 | 15 | 10.0 | 12.0 | 0.03 | 0.85 | 0.70 | 92 | 1007.6 |
| 20260506194005 | 45 | 21 | 11.0 | 12.0 | 0.04 | 0.84 | 0.70 | 93 | 1007.6 |
| 20260506193521 | 44 | 21 | 9.0 | 13.0 | 0.04 | 0.85 | 0.70 | 92 | 1007.6 |
| 20260506193505 | 45 | 14 | 9.0 | 12.0 | 0.04 | 0.84 | 0.70 | 93 | 1007.5 |
| 20260506193039 | 44 | 16 | 11.0 | 14.0 | 0.04 | 0.85 | 0.70 | 92 | 1007.7 |
| 20260506193005 | 45 | 16 | 11.0 | 14.0 | 0.04 | 0.84 | 0.70 | 93 | 1007.6 |
| 20260506192521 | 44 | 26 | 11.0 | 14.0 | 0.04 | 0.85 | 0.70 | 92 | 1007.6 |
| 20260506192505 | 45 | 26 | 12.0 | 14.0 | 0.04 | 0.84 | 0.70 | 93 | 1007.5 |
| 20260506192018 | 44 | 26 | 11.0 | 14.0 | 0.05 | 0.85 | 0.70 | 92 | 1007.5 |
| 20260506191538 | 44 | 16 | 12.0 | 13.0 | 0.05 | 0.85 | 0.70 | 92 | 1007.6 |
| 20260506191504 | 44 | 18 | 12.0 | 13.0 | 0.05 | 0.84 | 0.70 | 93 | 1007.5 |
| 20260506191022 | 44 | 21 | 12.0 | 13.0 | 0.06 | 0.85 | 0.70 | 92 | 1007.6 |
| 20260506191004 | 45 | 31 | 12.0 | 13.0 | 0.06 | 0.84 | 0.70 | 93 | 1007.6 |
| 20260506190521 | 44 | 21 | 11.0 | 13.0 | 0.06 | 0.85 | 0.70 | 92 | 1007.6 |
| 20260506190505 | 45 | 21 | 12.0 | 13.0 | 0.06 | 0.84 | 0.70 | 93 | 1007.5 |
| 20260506190046 | 44 | 31 | 11.0 | 13.0 | 0.05 | 0.84 | 0.69 | 92 | 1007.6 |
| 20260506190005 | 45 | 26 | 12.0 | 13.0 | 0.05 | 0.79 | 0.69 | 93 | 1007.6 |
| 20260506185522 | 44 | 21 | 11.0 | 13.0 | 0.04 | 0.83 | 0.68 | 92 | 1007.7 |
| 20260506185023 | 44 | 21 | 11.0 | 13.0 | 0.05 | 0.83 | 0.68 | 92 | 1007.7 |
| 20260506185006 | 45 | 21 | 11.0 | 13.0 | 0.05 | 0.79 | 0.68 | 93 | 1007.6 |
| 20260506184543 | 44 | 18 | 10.0 | 14.0 | 0.04 | 0.82 | 0.67 | 92 | 1007.7 |
| 20260506184023 | 44 | 26 | 11.0 | 14.0 | 0.04 | 0.82 | 0.67 | 92 | 1007.8 |
| 20260506183519 | 44 | 11 | 11.0 | 14.0 | 0.04 | 0.81 | 0.66 | 92 | 1007.7 |
| 20260506183032 | 44 | 21 | 11.0 | 14.0 | 0.04 | 0.81 | 0.66 | 92 | 1007.7 |
| 20260506183006 | 45 | 16 | 11.0 | 14.0 | 0.05 | 0.79 | 0.66 | 93 | 1007.6 |
| 20260506182521 | 44 | 353 | 7.0 | 14.0 | 0.05 | 0.81 | 0.66 | 92 | 1007.9 |
| 20260506182505 | 44 | 13 | 7.0 | 14.0 | 0.05 | 0.79 | 0.66 | 93 | 1007.8 |
| 20260506182026 | 44 | 2 | 10.0 | 14.0 | 0.05 | 0.80 | 0.65 | 92 | 1007.9 |
| 20260506182005 | 44 | 2 | 10.0 | 14.0 | 0.05 | 0.79 | 0.65 | 92 | 1007.8 |
| 20260506181539 | 44 | 12 | 10.0 | 15.0 | 0.06 | 0.80 | 0.65 | 92 | 1007.8 |
| 20260506181504 | 45 | 16 | 11.0 | 14.0 | 0.06 | 0.79 | 0.65 | 93 | 1007.7 |
| 20260506181023 | 44 | 21 | 11.0 | 15.0 | 0.06 | 0.79 | 0.64 | 92 | 1007.8 |
| 20260506181004 | 44 | 10 | 12.0 | 15.0 | 0.06 | 0.79 | 0.64 | 93 | 1007.7 |
| 20260506180523 | 44 | 353 | 10.0 | 15.0 | 0.08 | 0.79 | 0.64 | 92 | 1008.1 |
| 20260506180040 | 44 | 9 | 9.0 | 13.0 | 0.09 | 0.79 | 0.64 | 92 | 1008.1 |
| 20260506180006 | 44 | 16 | 10.0 | 13.0 | 0.09 | 0.70 | 0.64 | 93 | 1008.0 |
| 20260506175524 | 44 | 10 | 9.0 | 14.0 | 0.10 | 0.79 | 0.64 | 92 | 1008.0 |
| 20260506175505 | 44 | 9 | 9.0 | 14.0 | 0.11 | 0.70 | 0.64 | 93 | 1007.9 |
| 20260506175022 | 44 | 341 | 9.0 | 14.0 | 0.10 | 0.78 | 0.63 | 92 | 1008.1 |
| 20260506175004 | 44 | 26 | 10.0 | 14.0 | 0.11 | 0.70 | 0.63 | 93 | 1008.0 |
| 20260506174538 | 44 | 322 | 9.0 | 14.0 | 0.12 | 0.78 | 0.63 | 92 | 1008.2 |
| 20260506174505 | 44 | 353 | 11.0 | 14.0 | 0.12 | 0.70 | 0.63 | 93 | 1008.1 |
| 20260506174022 | 44 | 1 | 9.0 | 14.0 | 0.11 | 0.77 | 0.62 | 92 | 1008.2 |
| 20260506174003 | 44 | 341 | 10.0 | 14.0 | 0.11 | 0.70 | 0.62 | 93 | 1008.0 |
| 20260506173523 | 44 | 21 | 10.0 | 14.0 | 0.12 | 0.77 | 0.62 | 92 | 1008.3 |
| 20260506173047 | 44 | 4 | 9.0 | 14.0 | 0.11 | 0.76 | 0.61 | 92 | 1008.5 |
| 20260506173003 | 44 | 2 | 10.0 | 14.0 | 0.11 | 0.70 | 0.61 | 93 | 1008.3 |
| 20260506172521 | 44 | 347 | 10.0 | 14.0 | 0.12 | 0.76 | 0.61 | 92 | 1008.5 |
| 20260506172022 | 44 | 13 | 9.0 | 14.0 | 0.11 | 0.75 | 0.60 | 92 | 1008.5 |
| 20260506172002 | 44 | 14 | 10.0 | 14.0 | 0.11 | 0.70 | 0.60 | 93 | 1008.2 |
| 20260506171538 | 44 | 4 | 11.0 | 15.0 | 0.11 | 0.74 | 0.58 | 92 | 1008.4 |
| 20260506171501 | 44 | 6 | 11.0 | 14.0 | 0.11 | 0.70 | 0.59 | 93 | 1008.4 |
| 20260506171023 | 44 | 21 | 11.0 | 15.0 | 0.10 | 0.73 | 0.58 | 92 | 1008.4 |
| 20260506171002 | 44 | 10 | 11.0 | 15.0 | 0.11 | 0.70 | 0.57 | 93 | 1008.3 |
| 20260506170526 | 44 | 14 | 10.0 | 15.0 | 0.09 | 0.71 | 0.56 | 92 | 1008.5 |
| 20260506170502 | 44 | 21 | 11.0 | 15.0 | 0.09 | 0.70 | 0.56 | 93 | 1008.4 |
| 20260506170041 | 44 | 18 | 10.0 | 13.0 | 0.08 | 0.70 | 0.55 | 92 | 1008.5 |
| 20260506170002 | 44 | 349 | 11.0 | 13.0 | 0.09 | 0.61 | 0.54 | 92 | 1008.4 |
| 20260506165522 | 44 | 347 | 8.0 | 16.0 | 0.07 | 0.68 | 0.52 | 92 | 1008.4 |
| 20260506165022 | 44 | 359 | 9.0 | 16.0 | 0.07 | 0.67 | 0.52 | 92 | 1008.5 |
| 20260506165005 | 44 | 0 | 11.0 | 15.0 | 0.07 | 0.61 | 0.52 | 92 | 1008.3 |
| 20260506164536 | 44 | 13 | 12.0 | 16.0 | 0.06 | 0.66 | 0.51 | 92 | 1008.4 |
| 20260506164505 | 44 | 21 | 12.0 | 15.0 | 0.07 | 0.61 | 0.51 | 92 | 1008.3 |
| 20260506164022 | 44 | 355 | 12.0 | 15.0 | 0.07 | 0.66 | 0.51 | 92 | 1008.7 |
| 20260506163522 | 44 | 13 | 12.0 | 15.0 | 0.07 | 0.65 | 0.50 | 92 | 1008.5 |
| 20260506163501 | 44 | 16 | 13.0 | 15.0 | 0.08 | 0.61 | 0.50 | 92 | 1008.3 |
| 20260506163054 | 44 | 2 | 9.0 | 16.0 | 0.09 | 0.65 | 0.50 | 92 | 1008.6 |
| 20260506162523 | 44 | 2 | 11.0 | 16.0 | 0.08 | 0.64 | 0.49 | 92 | 1008.7 |
| 20260506162502 | 44 | 6 | 12.0 | 16.0 | 0.09 | 0.61 | 0.49 | 92 | 1008.5 |
| 20260506162023 | 44 | 6 | 9.0 | 16.0 | 0.10 | 0.64 | 0.49 | 92 | 1008.7 |
| 20260506162002 | 44 | 12 | 9.0 | 16.0 | 0.10 | 0.61 | 0.48 | 92 | 1008.6 |
| 20260506161539 | 44 | 21 | 14.0 | 16.0 | 0.10 | 0.63 | 0.48 | 92 | 1008.7 |
| 20260506161503 | 45 | 21 | 14.0 | 16.0 | 0.10 | 0.61 | 0.48 | 92 | 1008.6 |
| 20260506161022 | 44 | 5 | 11.0 | 16.0 | 0.10 | 0.62 | 0.47 | 92 | 1008.7 |
| 20260506161003 | 45 | 16 | 12.0 | 16.0 | 0.10 | 0.61 | 0.47 | 92 | 1008.5 |
| 20260506160522 | 44 | 8 | 13.0 | 16.0 | 0.11 | 0.62 | 0.47 | 92 | 1008.6 |
| 20260506160502 | 45 | 21 | 15.0 | 16.0 | 0.11 | 0.61 | 0.47 | 92 | 1008.5 |
| 20260506160037 | 45 | 16 | 12.0 | 15.0 | 0.12 | 0.62 | 0.47 | 92 | 1008.8 |
| 20260506155519 | 45 | 18 | 11.0 | 13.0 | 0.12 | 0.61 | 0.46 | 92 | 1008.8 |
| 20260506155506 | 45 | 21 | 12.0 | 13.0 | 0.12 | 0.50 | 0.46 | 92 | 1008.7 |
| 20260506155022 | 45 | 18 | 10.0 | 12.0 | 0.12 | 0.60 | 0.45 | 92 | 1008.8 |
| 20260506155004 | 45 | 26 | 10.0 | 12.0 | 0.12 | 0.50 | 0.45 | 92 | 1008.7 |
| 20260506154543 | 45 | 16 | 10.0 | 12.0 | 0.12 | 0.58 | 0.44 | 91 | 1008.9 |
| 20260506154019 | 45 | 12 | 7.0 | 11.0 | 0.13 | 0.58 | 0.44 | 91 | 1008.9 |
| 20260506154004 | 45 | 21 | 7.0 | 11.0 | 0.12 | 0.50 | 0.43 | 92 | 1008.8 |
| 20260506153519 | 45 | 8 | 8.0 | 11.0 | 0.12 | 0.57 | 0.42 | 91 | 1008.9 |
| 20260506153504 | 45 | 11 | 8.0 | 11.0 | 0.12 | 0.50 | 0.42 | 92 | 1008.8 |
| 20260506153034 | 45 | 352 | 7.0 | 10.0 | 0.12 | 0.56 | 0.41 | 91 | 1009.1 |
| 20260506153005 | 45 | 3 | 8.0 | 10.0 | 0.12 | 0.50 | 0.41 | 91 | 1008.9 |
| 20260506152518 | 45 | 15 | 7.0 | 10.0 | 0.11 | 0.55 | 0.40 | 91 | 1009.1 |
| 20260506152506 | 45 | 14 | 8.0 | 10.0 | 0.11 | 0.50 | 0.40 | 91 | 1009.0 |
| 20260506152019 | 45 | 21 | 8.0 | 10.0 | 0.11 | 0.54 | 0.39 | 90 | 1009.0 |
| 20260506152006 | 45 | 21 | 8.0 | 10.0 | 0.11 | 0.50 | 0.39 | 91 | 1008.9 |
| 20260506151540 | 45 | 21 | 7.0 | 9.0 | 0.10 | 0.52 | 0.38 | 90 | 1009.0 |
| 20260506151506 | 45 | 18 | 7.0 | 9.0 | 0.10 | 0.50 | 0.38 | 90 | 1008.9 |
| 20260506151018 | 45 | 6 | 6.0 | 9.0 | 0.10 | 0.52 | 0.37 | 90 | 1009.0 |
| 20260506151005 | 45 | 0 | 6.0 | 9.0 | 0.10 | 0.50 | 0.36 | 90 | 1008.9 |
| 20260506150522 | 45 | 14 | 4.0 | 9.0 | 0.10 | 0.51 | 0.36 | 90 | 1008.9 |
| 20260506150503 | 45 | 4 | 4.0 | 9.0 | 0.10 | 0.50 | 0.35 | 90 | 1008.9 |
| 20260506150038 | 45 | 7 | 6.0 | 9.0 | 0.09 | 0.50 | 0.35 | 90 | 1009.0 |
| 20260506145522 | 45 | 21 | 5.0 | 10.0 | 0.09 | 0.49 | 0.34 | 89 | 1008.7 |
| 20260506145503 | 45 | 16 | 5.0 | 9.0 | 0.09 | 0.41 | 0.33 | 90 | 1008.7 |
| 20260506145023 | 45 | 6 | 7.0 | 10.0 | 0.08 | 0.48 | 0.33 | 89 | 1008.9 |
| 20260506145001 | 45 | 18 | 7.0 | 9.0 | 0.08 | 0.41 | 0.33 | 90 | 1008.8 |
| 20260506144538 | 45 | 12 | 7.0 | 10.0 | 0.08 | 0.47 | 0.32 | 89 | 1008.9 |
| 20260506144503 | 46 | 14 | 8.0 | 9.0 | 0.08 | 0.41 | 0.32 | 90 | 1008.8 |
| 20260506144022 | 45 | 21 | 5.0 | 8.0 | 0.07 | 0.46 | 0.31 | 89 | 1008.8 |
| 20260506144003 | 45 | 11 | 5.0 | 8.0 | 0.07 | 0.41 | 0.31 | 89 | 1008.5 |
| 20260506143522 | 45 | 31 | 3.0 | 5.0 | 0.07 | 0.45 | 0.30 | 89 | 1008.8 |
| 20260506143502 | 46 | 31 | 3.0 | 5.0 | 0.07 | 0.41 | 0.30 | 89 | 1008.6 |
| 20260506143036 | 45 | 26 | 3.0 | 5.0 | 0.06 | 0.44 | 0.29 | 89 | 1008.7 |
| 20260506143006 | 46 | 31 | 3.0 | 5.0 | 0.07 | 0.41 | 0.29 | 89 | 1008.5 |
| 20260506142524 | 45 | 31 | 2.0 | 4.0 | 0.07 | 0.44 | 0.29 | 88 | 1008.7 |
| 20260506142505 | 46 | 31 | 2.0 | 4.0 | 0.07 | 0.41 | 0.29 | 89 | 1008.6 |
| 20260506142021 | 45 | 0 | 1.0 | 4.0 | 0.07 | 0.43 | 0.28 | 88 | 1008.8 |
| 20260506141534 | 45 | 31 | 2.0 | 4.0 | 0.07 | 0.43 | 0.28 | 88 | 1008.7 |
| 20260506141506 | 46 | 15 | 3.0 | 3.0 | 0.07 | 0.41 | 0.27 | 89 | 1008.6 |
| 20260506141023 | 45 | 21 | 1.0 | 4.0 | 0.06 | 0.42 | 0.27 | 88 | 1008.7 |
| 20260506141006 | 46 | 21 | 2.0 | 4.0 | 0.06 | 0.41 | 0.27 | 88 | 1008.5 |
| 20260506140519 | 45 | 0 | 1.0 | 5.0 | 0.06 | 0.41 | 0.26 | 88 | 1008.7 |
| 20260506140034 | 45 | 343 | 1.0 | 5.0 | 0.06 | 0.41 | 0.26 | 88 | 1008.6 |
| 20260506140005 | 46 | 13 | 2.0 | 5.0 | 0.06 | 0.35 | 0.26 | 89 | 1008.5 |
| 20260506135524 | 45 | 1 | 2.0 | 6.0 | 0.06 | 0.40 | 0.25 | 88 | 1008.7 |
| 20260506135025 | 45 | 352 | 2.0 | 7.0 | 0.06 | 0.40 | 0.25 | 88 | 1008.6 |
| 20260506134538 | 45 | 356 | 4.0 | 8.0 | 0.06 | 0.39 | 0.24 | 88 | 1008.6 |
| 20260506134502 | 46 | 344 | 4.0 | 8.0 | 0.06 | 0.35 | 0.24 | 89 | 1008.7 |
| 20260506134018 | 45 | 336 | 3.0 | 8.0 | 0.06 | 0.39 | 0.24 | 89 | 1008.8 |
| 20260506134002 | 46 | 303 | 4.0 | 8.0 | 0.06 | 0.35 | 0.24 | 89 | 1008.7 |
| 20260506133519 | 46 | 339 | 4.0 | 10.0 | 0.06 | 0.38 | 0.23 | 89 | 1008.8 |
| 20260506133503 | 46 | 349 | 5.0 | 10.0 | 0.07 | 0.35 | 0.23 | 89 | 1008.6 |
| 20260506133037 | 46 | 335 | 2.0 | 10.0 | 0.06 | 0.37 | 0.22 | 90 | 1008.8 |
| 20260506133003 | 46 | 350 | 2.0 | 10.0 | 0.07 | 0.35 | 0.22 | 90 | 1008.7 |
| 20260506132522 | 46 | 321 | 4.0 | 8.0 | 0.07 | 0.37 | 0.22 | 90 | 1008.9 |
| 20260506132502 | 46 | 341 | 4.0 | 8.0 | 0.08 | 0.35 | 0.22 | 91 | 1008.8 |
| 20260506132018 | 45 | 313 | 5.0 | 8.0 | 0.07 | 0.36 | 0.21 | 90 | 1009.1 |
| 20260506132003 | 46 | 333 | 5.0 | 8.0 | 0.07 | 0.35 | 0.21 | 91 | 1009.0 |
| 20260506131538 | 45 | 354 | 3.0 | 10.0 | 0.08 | 0.36 | 0.21 | 90 | 1008.9 |
| 20260506131503 | 46 | 26 | 4.0 | 9.0 | 0.08 | 0.35 | 0.21 | 91 | 1008.7 |
| 20260506131022 | 45 | 3 | 6.0 | 10.0 | 0.08 | 0.36 | 0.21 | 90 | 1008.7 |
| 20260506131003 | 46 | 14 | 8.0 | 9.0 | 0.09 | 0.35 | 0.21 | 91 | 1008.6 |
| 20260506130521 | 45 | 21 | 5.0 | 10.0 | 0.09 | 0.35 | 0.20 | 90 | 1008.7 |
| 20260506130503 | 46 | 11 | 5.0 | 10.0 | 0.09 | 0.35 | 0.20 | 91 | 1008.5 |
| 20260506130038 | 45 | 15 | 6.0 | 12.0 | 0.09 | 0.35 | 0.20 | 90 | 1008.9 |
| 20260506130006 | 46 | 14 | 7.0 | 11.0 | 0.09 | 0.26 | 0.20 | 91 | 1008.8 |
| 20260506125518 | 46 | 6 | 6.0 | 12.0 | 0.09 | 0.34 | 0.19 | 90 | 1008.6 |
| 20260506125505 | 46 | 351 | 7.0 | 12.0 | 0.09 | 0.26 | 0.19 | 91 | 1008.5 |
| 20260506125018 | 46 | 13 | 9.0 | 12.0 | 0.09 | 0.34 | 0.19 | 90 | 1008.8 |
| 20260506124532 | 46 | 16 | 8.0 | 12.0 | 0.09 | 0.33 | 0.18 | 90 | 1009.0 |
| 20260506124506 | 46 | 14 | 9.0 | 12.0 | 0.09 | 0.26 | 0.18 | 90 | 1008.8 |
| 20260506124022 | 46 | 21 | 9.0 | 12.0 | 0.09 | 0.33 | 0.18 | 90 | 1009.0 |
| 20260506123522 | 46 | 8 | 6.0 | 11.0 | 0.07 | 0.31 | 0.16 | 90 | 1009.2 |
| 20260506123504 | 47 | 11 | 5.0 | 11.0 | 0.07 | 0.26 | 0.16 | 90 | 1009.1 |
| 20260506123032 | 46 | 16 | 5.0 | 9.0 | 0.06 | 0.30 | 0.15 | 89 | 1009.3 |
| 20260506122522 | 46 | 358 | 4.0 | 9.0 | 0.06 | 0.30 | 0.15 | 89 | 1009.3 |
| 20260506122023 | 47 | 333 | 5.0 | 14.0 | 0.05 | 0.26 | 0.14 | 89 | 1009.2 |
| 20260506122018 | 46 | 330 | 4.0 | 14.0 | 0.05 | 0.29 | 0.14 | 89 | 1009.3 |
| 20260506121533 | 46 | 264 | 8.0 | 14.0 | 0.04 | 0.28 | 0.13 | 89 | 1009.2 |
| 20260506121026 | 46 | 56 | 3.0 | 13.0 | 0.04 | 0.27 | 0.12 | 88 | 1008.6 |
| 20260506121004 | 47 | 59 | 2.0 | 13.0 | 0.04 | 0.26 | 0.12 | 89 | 1008.6 |
| 20260506120518 | 46 | 299 | 7.0 | 13.0 | 0.03 | 0.26 | 0.11 | 88 | 1009.5 |
| 20260506120506 | 47 | 269 | 9.0 | 13.0 | 0.03 | 0.26 | 0.11 | 88 | 1009.4 |
| 20260506120040 | 47 | 37 | 4.0 | 10.0 | 0.03 | 0.26 | 0.11 | 88 | 1008.8 |
| 20260506120006 | 47 | 31 | 4.0 | 10.0 | 0.03 | 0.23 | 0.10 | 88 | 1008.7 |
| 20260506115518 | 47 | 276 | 5.0 | 10.0 | 0.02 | 0.25 | 0.10 | 88 | 1009.6 |
| 20260506115505 | 47 | 276 | 6.0 | 10.0 | 0.02 | 0.23 | 0.10 | 88 | 1009.6 |
| 20260506115021 | 47 | 346 | 5.0 | 11.0 | 0.02 | 0.23 | 0.10 | 88 | 1008.9 |
| 20260506114535 | 47 | 316 | 6.0 | 11.0 | 0.02 | 0.24 | 0.09 | 87 | 1009.3 |
| 20260506114505 | 47 | 337 | 6.0 | 11.0 | 0.02 | 0.23 | 0.09 | 88 | 1009.3 |
| 20260506114021 | 47 | 350 | 4.0 | 9.0 | 0.02 | 0.24 | 0.09 | 87 | 1009.2 |
| 20260506113520 | 47 | 359 | 5.0 | 10.0 | 0.02 | 0.24 | 0.09 | 87 | 1009.2 |
| 20260506113504 | 47 | 351 | 5.0 | 10.0 | 0.02 | 0.23 | 0.09 | 88 | 1009.1 |
| 20260506113035 | 47 | 31 | 5.0 | 10.0 | 0.02 | 0.24 | 0.09 | 87 | 1009.3 |
| 20260506113005 | 48 | 349 | 6.0 | 10.0 | 0.02 | 0.23 | 0.09 | 88 | 1009.2 |
| 20260506112521 | 47 | 4 | 5.0 | 12.0 | 0.02 | 0.24 | 0.09 | 87 | 1009.1 |
| 20260506112505 | 48 | 343 | 5.0 | 12.0 | 0.02 | 0.23 | 0.09 | 88 | 1009.1 |
| 20260506112023 | 47 | 331 | 8.0 | 12.0 | 0.03 | 0.24 | 0.09 | 87 | 1009.4 |
| 20260506112005 | 48 | 359 | 9.0 | 12.0 | 0.03 | 0.23 | 0.09 | 88 | 1009.4 |
| 20260506111535 | 47 | 360 | 6.0 | 12.0 | 0.03 | 0.24 | 0.09 | 88 | 1009.4 |
| 20260506111505 | 48 | 21 | 6.0 | 12.0 | 0.03 | 0.23 | 0.09 | 89 | 1009.3 |
| 20260506111019 | 48 | 337 | 9.0 | 12.0 | 0.02 | 0.23 | 0.08 | 89 | 1009.1 |
| 20260506110518 | 48 | 357 | 3.0 | 12.0 | 0.02 | 0.23 | 0.08 | 89 | 1009.2 |
| 20260506110041 | 48 | 6 | 9.0 | 14.0 | 0.02 | 0.23 | 0.08 | 89 | 1009.2 |
| 20260506110005 | 48 | 8 | 10.0 | 12.0 | 0.02 | 0.21 | 0.08 | 89 | 1009.1 |
| 20260506105522 | 47 | 21 | 8.0 | 14.0 | 0.02 | 0.23 | 0.08 | 88 | 1009.1 |
| 20260506105505 | 48 | 26 | 7.0 | 13.0 | 0.02 | 0.21 | 0.08 | 89 | 1008.9 |
| 20260506105019 | 48 | 1 | 10.0 | 14.0 | 0.02 | 0.23 | 0.08 | 88 | 1009.2 |
| 20260506105005 | 48 | 3 | 11.0 | 13.0 | 0.02 | 0.21 | 0.08 | 88 | 1009.0 |
| 20260506104536 | 48 | 4 | 8.0 | 17.0 | 0.01 | 0.22 | 0.07 | 87 | 1009.2 |
| 20260506104504 | 48 | 16 | 9.0 | 15.0 | 0.01 | 0.21 | 0.07 | 88 | 1009.1 |
| 20260506104023 | 48 | 21 | 10.0 | 18.0 | 0.01 | 0.22 | 0.07 | 87 | 1009.1 |
| 20260506104004 | 49 | 354 | 11.0 | 18.0 | 0.01 | 0.21 | 0.07 | 88 | 1009.0 |
| 20260506103519 | 49 | 4 | 13.0 | 18.0 | 0.02 | 0.22 | 0.07 | 87 | 1008.7 |
| 20260506103504 | 49 | 359 | 13.0 | 18.0 | 0.02 | 0.21 | 0.07 | 88 | 1008.6 |
| 20260506103036 | 49 | 11 | 12.0 | 17.0 | 0.02 | 0.22 | 0.07 | 88 | 1008.7 |
| 20260506103005 | 50 | 11 | 13.0 | 17.0 | 0.02 | 0.21 | 0.07 | 89 | 1008.7 |
| 20260506102519 | 50 | 7 | 12.0 | 16.0 | 0.02 | 0.22 | 0.07 | 89 | 1008.7 |
| 20260506102019 | 50 | 359 | 7.0 | 12.0 | 0.01 | 0.21 | 0.06 | 90 | 1008.7 |
| 20260506102005 | 51 | 6 | 7.0 | 12.0 | 0.01 | 0.21 | 0.06 | 90 | 1008.6 |
| 20260506101535 | 50 | 340 | 7.0 | 11.0 | 0.02 | 0.21 | 0.06 | 90 | 1008.7 |
| 20260506101502 | 51 | 349 | 7.0 | 11.0 | 0.02 | 0.21 | 0.06 | 90 | 1008.6 |
| 20260506101024 | 50 | 3 | 6.0 | 13.0 | 0.05 | 0.21 | 0.06 | 90 | 1008.5 |
| 20260506100959 | 51 | 340 | 7.0 | 12.0 | 0.05 | 0.21 | 0.06 | 90 | 1008.4 |
| 20260506100518 | 51 | 323 | 5.0 | 13.0 | 0.05 | 0.21 | 0.06 | 90 | 1008.6 |
| 20260506100500 | 51 | 316 | 6.0 | 12.0 | 0.05 | 0.21 | 0.06 | 90 | 1008.5 |
| 20260506100037 | 51 | 339 | 3.0 | 8.0 | 0.05 | 0.21 | 0.06 | 90 | 1008.6 |
| 20260506095957 | 51 | 359 | 4.0 | 8.0 | 0.05 | 0.16 | 0.06 | 91 | 1008.4 |
| 20260506095519 | 51 | 346 | 3.0 | 8.0 | 0.05 | 0.21 | 0.06 | 90 | 1008.4 |
| 20260506095455 | 51 | 332 | 4.0 | 8.0 | 0.05 | 0.16 | 0.06 | 91 | 1008.2 |
| 20260506095019 | 50 | 4 | 3.0 | 10.0 | 0.05 | 0.21 | 0.06 | 90 | 1008.5 |
| 20260506094954 | 51 | 352 | 3.0 | 9.0 | 0.05 | 0.16 | 0.06 | 90 | 1008.4 |
| 20260506094539 | 50 | 353 | 3.0 | 13.0 | 0.05 | 0.21 | 0.06 | 89 | 1008.4 |
| 20260506094019 | 50 | 349 | 7.0 | 13.0 | 0.05 | 0.21 | 0.06 | 89 | 1008.6 |
| 20260506093521 | 51 | 61 | 7.0 | 13.0 | 0.04 | 0.20 | 0.05 | 89 | 1007.9 |
| 20260506093455 | 51 | 46 | 6.0 | 11.0 | 0.04 | 0.16 | 0.05 | 89 | 1007.9 |
| 20260506093037 | 51 | 321 | 6.0 | 12.0 | 0.04 | 0.20 | 0.05 | 88 | 1008.9 |
| 20260506092953 | 51 | 345 | 7.0 | 12.0 | 0.04 | 0.16 | 0.05 | 88 | 1008.7 |
| 20260506092518 | 51 | 31 | 10.0 | 12.0 | 0.04 | 0.20 | 0.05 | 87 | 1008.4 |
| 20260506092022 | 52 | 31 | 9.0 | 12.0 | 0.04 | 0.20 | 0.05 | 87 | 1008.6 |
| 20260506091947 | 52 | 35 | 9.0 | 11.0 | 0.04 | 0.16 | 0.05 | 88 | 1008.5 |
| 20260506091536 | 52 | 31 | 7.0 | 18.0 | 0.03 | 0.19 | 0.04 | 87 | 1009.0 |
| 20260506091025 | 52 | 297 | 6.0 | 18.0 | 0.00 | 0.16 | 0.01 | 87 | 1009.8 |
| 20260506090948 | 52 | 288 | 7.0 | 18.0 | 0.00 | 0.16 | 0.01 | 87 | 1009.8 |
| 20260506090522 | 52 | 21 | 14.0 | 18.0 | 0.00 | 0.16 | 0.01 | 85 | 1008.1 |
| 20260506090443 | 53 | 21 | 15.0 | 18.0 | 0.00 | 0.16 | 0.01 | 85 | 1008.0 |
| 20260506090036 | 53 | 16 | 10.0 | 18.0 | 0.00 | 0.16 | 0.01 | 84 | 1008.0 |
| 20260506085940 | 53 | 21 | 9.0 | 18.0 | 0.00 | 0.16 | 0.01 | 85 | 1008.0 |
| 20260506085522 | 53 | 329 | 10.0 | 17.0 | 0.00 | 0.16 | 0.01 | 85 | 1008.8 |
| 20260506085023 | 53 | 2 | 11.0 | 17.0 | 0.00 | 0.16 | 0.01 | 84 | 1008.5 |
| 20260506084929 | 53 | 352 | 14.0 | 17.0 | 0.00 | 0.16 | 0.01 | 84 | 1008.2 |
| 20260506084543 | 53 | 12 | 9.0 | 16.0 | 0.00 | 0.16 | 0.01 | 84 | 1008.1 |
| 20260506084431 | 54 | 8 | 9.0 | 16.0 | 0.00 | 0.16 | 0.01 | 85 | 1008.3 |
| 20260506084023 | 53 | 312 | 9.0 | 17.0 | 0.00 | 0.16 | 0.01 | 84 | 1008.9 |
| 20260506083930 | 54 | 347 | 10.0 | 17.0 | 0.00 | 0.16 | 0.01 | 84 | 1008.7 |
| 20260506083525 | 54 | 354 | 11.0 | 17.0 | 0.00 | 0.16 | 0.01 | 84 | 1008.5 |
| 20260506083429 | 54 | 2 | 11.0 | 17.0 | 0.00 | 0.16 | 0.01 | 84 | 1008.5 |
| 20260506083034 | 54 | 352 | 10.0 | 16.0 | 0.00 | 0.16 | 0.01 | 84 | 1008.6 |
| 20260506082930 | 54 | 352 | 11.0 | 16.0 | 0.00 | 0.16 | 0.01 | 84 | 1008.5 |
| 20260506082525 | 54 | 1 | 12.0 | 16.0 | 0.00 | 0.16 | 0.01 | 83 | 1008.2 |
| 20260506082429 | 54 | 21 | 12.0 | 16.0 | 0.00 | 0.16 | 0.01 | 84 | 1008.1 |
| 20260506082022 | 54 | 1 | 9.0 | 14.0 | 0.00 | 0.16 | 0.01 | 83 | 1008.8 |
| 20260506081541 | 54 | 6 | 10.0 | 14.0 | 0.00 | 0.16 | 0.01 | 83 | 1008.3 |
| 20260506081433 | 55 | 21 | 10.0 | 14.0 | 0.00 | 0.16 | 0.01 | 84 | 1008.1 |
| 20260506081022 | 54 | 10 | 10.0 | 14.0 | 0.00 | 0.16 | 0.01 | 84 | 1008.4 |
| 20260506080932 | 55 | 14 | 11.0 | 14.0 | 0.00 | 0.16 | 0.01 | 85 | 1008.4 |
| 20260506080522 | 54 | 349 | 9.0 | 16.0 | 0.00 | 0.16 | 0.01 | 84 | 1008.3 |
| 20260506080433 | 55 | 354 | 11.0 | 15.0 | 0.00 | 0.16 | 0.01 | 85 | 1008.2 |
| 20260506073526 | 54 | 293 | 4.0 | 7.0 | 0.00 | 0.16 | 0.01 | 91 | 1008.6 |
| 20260506073432 | 54 | 316 | 3.0 | 7.0 | 0.00 | 0.16 | 0.01 | 91 | 1008.2 |
| 20260506073035 | 54 | 47 | 2.0 | 4.0 | 0.00 | 0.16 | 0.01 | 91 | 1008.1 |
| 20260506072929 | 55 | 63 | 3.0 | 4.0 | 0.00 | 0.16 | 0.01 | 91 | 1008.1 |
| 20260506072523 | 54 | 0 | 0.0 | 6.0 | 0.00 | 0.16 | 0.01 | 92 | 1008.4 |
| 20260506072430 | 55 | 31 | 1.0 | 4.0 | 0.00 | 0.16 | 0.01 | 92 | 1008.4 |
| 20260506072023 | 54 | 273 | 2.0 | 6.0 | 0.00 | 0.16 | 0.01 | 92 | 1008.7 |
| 20260506071930 | 54 | 273 | 3.0 | 4.0 | 0.00 | 0.16 | 0.01 | 93 | 1008.9 |
| 20260506071535 | 53 | 278 | 1.0 | 4.0 | 0.00 | 0.16 | 0.01 | 92 | 1008.3 |
| 20260506071429 | 54 | 320 | 1.0 | 4.0 | 0.00 | 0.16 | 0.01 | 92 | 1007.9 |
| 20260506071022 | 53 | 0 | 0.0 | 5.0 | 0.00 | 0.16 | 0.01 | 92 | 1008.0 |
| 20260506070930 | 53 | 338 | 0.0 | 5.0 | 0.00 | 0.16 | 0.01 | 92 | 1007.9 |
| 20260506070525 | 53 | 355 | 2.0 | 5.0 | 0.00 | 0.16 | 0.01 | 92 | 1008.1 |
| 20260506070429 | 53 | 8 | 2.0 | 5.0 | 0.00 | 0.16 | 0.01 | 92 | 1008.0 |
| 20260506062429 | 56 | 17 | 2.0 | 4.0 | 0.00 | 0.16 | 0.01 | 86 | 1008.0 |
| 20260506062023 | 55 | 358 | 1.0 | 6.0 | 0.00 | 0.16 | 0.01 | 87 | 1008.1 |
| 20260506061930 | 56 | 10 | 1.0 | 7.0 | 0.00 | 0.16 | 0.01 | 87 | 1008.1 |
| 20260506061536 | 55 | 21 | 3.0 | 8.0 | 0.00 | 0.16 | 0.01 | 88 | 1008.1 |
| 20260506061430 | 55 | 353 | 3.0 | 7.0 | 0.00 | 0.16 | 0.01 | 88 | 1007.9 |
| 20260506061024 | 54 | 338 | 4.0 | 10.0 | 0.00 | 0.16 | 0.01 | 89 | 1008.1 |
| 20260506060929 | 55 | 350 | 4.0 | 10.0 | 0.00 | 0.16 | 0.01 | 89 | 1008.0 |
| 20260506060522 | 54 | 324 | 5.0 | 10.0 | 0.00 | 0.16 | 0.01 | 89 | 1007.9 |
| 20260506060429 | 54 | 337 | 6.0 | 10.0 | 0.00 | 0.16 | 0.01 | 90 | 1007.8 |
| 20260506051025 | 56 | 0 | 0.0 | 2.0 | 0.01 | 0.16 | 0.01 | 87 | 1008.4 |
| 20260506050927 | 56 | 221 | 0.0 | 2.0 | 0.01 | 0.16 | 0.01 | 87 | 1008.3 |
| 20260506050522 | 56 | 0 | 0.0 | 2.0 | 0.01 | 0.16 | 0.01 | 86 | 1008.5 |
| 20260506045022 | 57 | 221 | 0.0 | 9.0 | 0.01 | 0.16 | 0.01 | 82 | 1008.3 |
| 20260506044910 | 58 | 221 | 1.0 | 8.0 | 0.01 | 0.15 | 0.01 | 82 | 1008.1 |
| 20260506044544 | 58 | 221 | 3.0 | 9.0 | 0.01 | 0.16 | 0.01 | 81 | 1008.2 |
| 20260506044022 | 58 | 230 | 4.0 | 11.0 | 0.01 | 0.16 | 0.01 | 80 | 1008.5 |
| 20260506043911 | 58 | 233 | 4.0 | 9.0 | 0.01 | 0.15 | 0.01 | 81 | 1008.3 |
| 20260506043522 | 58 | 212 | 6.0 | 11.0 | 0.00 | 0.15 | 0.00 | 79 | 1008.6 |
| 20260506043405 | 58 | 210 | 6.0 | 9.0 | 0.00 | 0.15 | 0.00 | 80 | 1008.4 |
| 20260506043035 | 58 | 209 | 4.0 | 11.0 | 0.00 | 0.15 | 0.00 | 80 | 1008.3 |
| 20260506042904 | 58 | 195 | 4.0 | 10.0 | 0.00 | 0.15 | 0.00 | 81 | 1008.2 |
| 20260506042523 | 58 | 207 | 5.0 | 11.0 | 0.00 | 0.15 | 0.00 | 82 | 1008.3 |
| 20260506042403 | 58 | 199 | 6.0 | 10.0 | 0.00 | 0.15 | 0.00 | 83 | 1008.3 |
| 20260506042022 | 58 | 201 | 6.0 | 11.0 | 0.00 | 0.15 | 0.00 | 83 | 1007.8 |
| 20260506041552 | 58 | 195 | 5.0 | 10.0 | 0.00 | 0.15 | 0.00 | 86 | 1007.7 |
| 20260506041404 | 58 | 200 | 4.0 | 9.0 | 0.00 | 0.15 | 0.00 | 87 | 1007.8 |
| 20260506041022 | 58 | 208 | 4.0 | 7.0 | 0.00 | 0.15 | 0.00 | 87 | 1007.9 |
| 20260506040903 | 59 | 198 | 5.0 | 6.0 | 0.00 | 0.15 | 0.00 | 88 | 1007.8 |
| 20260506040522 | 58 | 203 | 3.0 | 6.0 | 0.00 | 0.15 | 0.00 | 87 | 1007.6 |
| 20260506040403 | 58 | 210 | 3.0 | 6.0 | 0.00 | 0.15 | 0.00 | 88 | 1007.5 |
| 20260506040039 | 58 | 179 | 3.0 | 6.0 | 0.00 | 0.15 | 0.00 | 88 | 1007.5 |
| 20260506035902 | 59 | 193 | 4.0 | 6.0 | 0.00 | 0.15 | 0.15 | 88 | 1007.4 |
| 20260506035522 | 59 | 220 | 3.0 | 4.0 | 0.00 | 0.15 | 0.15 | 87 | 1007.9 |
| 20260506035406 | 59 | 214 | 3.0 | 4.0 | 0.00 | 0.15 | 0.15 | 88 | 1007.8 |
| 20260506035022 | 59 | 231 | 0.0 | 3.0 | 0.00 | 0.15 | 0.15 | 86 | 1007.6 |
| 20260506034904 | 59 | 151 | 0.0 | 3.0 | 0.00 | 0.15 | 0.15 | 86 | 1007.4 |
| 20260506034548 | 59 | 0 | 0.0 | 4.0 | 0.00 | 0.15 | 0.15 | 85 | 1007.4 |
| 20260506034404 | 59 | 151 | 1.0 | 3.0 | 0.00 | 0.15 | 0.15 | 84 | 1007.4 |
| 20260506034028 | 60 | 141 | 2.0 | 7.0 | 0.00 | 0.15 | 0.15 | 82 | 1007.5 |
| 20260506033900 | 60 | 112 | 2.0 | 7.0 | 0.00 | 0.15 | 0.15 | 83 | 1007.2 |
| 20260506033529 | 60 | 195 | 2.0 | 7.0 | 0.00 | 0.15 | 0.15 | 83 | 1007.8 |
| 20260506033354 | 60 | 214 | 3.0 | 7.0 | 0.00 | 0.15 | 0.15 | 84 | 1007.8 |
| 20260506033038 | 60 | 224 | 3.0 | 7.0 | 0.00 | 0.15 | 0.15 | 83 | 1007.9 |
| 20260506032849 | 61 | 237 | 3.0 | 6.0 | 0.00 | 0.15 | 0.15 | 84 | 1007.6 |
| 20260506032522 | 60 | 204 | 1.0 | 6.0 | 0.00 | 0.15 | 0.15 | 83 | 1007.5 |
| 20260506032023 | 61 | 214 | 2.0 | 6.0 | 0.00 | 0.15 | 0.15 | 83 | 1007.6 |
| 20260506031849 | 61 | 233 | 2.0 | 3.0 | 0.00 | 0.15 | 0.15 | 84 | 1007.5 |
| 20260506031535 | 61 | 244 | 1.0 | 6.0 | 0.00 | 0.15 | 0.15 | 81 | 1007.7 |
| 20260506031349 | 62 | 244 | 2.0 | 6.0 | 0.00 | 0.15 | 0.15 | 81 | 1007.6 |
| 20260506031024 | 62 | 244 | 1.0 | 6.0 | 0.00 | 0.15 | 0.15 | 80 | 1007.6 |
| 20260506030848 | 62 | 244 | 3.0 | 6.0 | 0.00 | 0.15 | 0.15 | 82 | 1007.5 |
| 20260506030521 | 61 | 228 | 3.0 | 7.0 | 0.00 | 0.15 | 0.15 | 81 | 1007.8 |
| 20260506030041 | 60 | 276 | 3.0 | 7.0 | 0.00 | 0.15 | 0.15 | 85 | 1007.5 |
| 20260506025846 | 60 | 281 | 4.0 | 7.0 | 0.00 | 0.15 | 0.15 | 88 | 1007.3 |
| 20260506025526 | 59 | 325 | 3.0 | 5.0 | 0.00 | 0.15 | 0.15 | 88 | 1007.2 |
| 20260506025345 | 59 | 1 | 3.0 | 5.0 | 0.00 | 0.15 | 0.15 | 88 | 1007.0 |
| 20260506025022 | 59 | 0 | 0.0 | 2.0 | 0.00 | 0.15 | 0.15 | 89 | 1007.0 |
| 20260506024844 | 60 | 21 | 0.0 | 2.0 | 0.00 | 0.15 | 0.15 | 89 | 1007.0 |
| 20260506024540 | 59 | 0 | 0.0 | 2.0 | 0.00 | 0.15 | 0.15 | 88 | 1007.2 |
| 20260506024022 | 59 | 21 | 0.0 | 4.0 | 0.00 | 0.15 | 0.15 | 87 | 1007.2 |
| 20260506023838 | 60 | 21 | 1.0 | 4.0 | 0.00 | 0.15 | 0.15 | 88 | 1007.0 |
| 20260506023526 | 59 | 21 | 2.0 | 4.0 | 0.00 | 0.15 | 0.15 | 85 | 1007.0 |
| 20260506023335 | 59 | 21 | 3.0 | 4.0 | 0.00 | 0.15 | 0.15 | 86 | 1006.9 |
| 20260506023037 | 59 | 21 | 1.0 | 3.0 | 0.00 | 0.15 | 0.15 | 85 | 1006.8 |
| 20260506022830 | 60 | 299 | 1.0 | 3.0 | 0.00 | 0.15 | 0.15 | 86 | 1006.8 |
| 20260506022522 | 59 | 323 | 1.0 | 5.0 | 0.00 | 0.15 | 0.15 | 84 | 1006.9 |
| 20260506022330 | 60 | 335 | 1.0 | 6.0 | 0.00 | 0.15 | 0.15 | 84 | 1006.7 |
| 20260506022022 | 60 | 332 | 1.0 | 8.0 | 0.00 | 0.15 | 0.15 | 83 | 1006.6 |
| 20260506021536 | 59 | 195 | 5.0 | 8.0 | 0.00 | 0.15 | 0.15 | 82 | 1006.6 |
| 20260506021328 | 60 | 170 | 7.0 | 8.0 | 0.00 | 0.15 | 0.15 | 81 | 1006.5 |
| 20260506021021 | 61 | 156 | 4.0 | 7.0 | 0.00 | 0.15 | 0.15 | 80 | 1006.5 |
| 20260506020526 | 62 | 0 | 0.0 | 6.0 | 0.00 | 0.15 | 0.15 | 80 | 1006.2 |
| 20260506020330 | 63 | 231 | 1.0 | 6.0 | 0.00 | 0.15 | 0.15 | 80 | 1006.1 |
| 20260506020037 | 62 | 224 | 4.0 | 6.0 | 0.00 | 0.15 | 0.15 | 79 | 1006.4 |
| 20260506015830 | 63 | 198 | 4.0 | 6.0 | 0.00 | 0.15 | 0.15 | 80 | 1006.3 |
| 20260506015523 | 63 | 228 | 3.0 | 6.0 | 0.00 | 0.15 | 0.15 | 79 | 1006.4 |
| 20260506015330 | 63 | 210 | 4.0 | 6.0 | 0.00 | 0.15 | 0.15 | 79 | 1006.3 |
| 20260506015023 | 63 | 243 | 4.0 | 6.0 | 0.00 | 0.15 | 0.15 | 78 | 1006.4 |
| 20260506014829 | 64 | 232 | 4.0 | 6.0 | 0.00 | 0.15 | 0.15 | 78 | 1006.4 |
| 20260506014536 | 64 | 236 | 2.0 | 4.0 | 0.00 | 0.15 | 0.15 | 76 | 1006.3 |
| 20260506014331 | 64 | 239 | 2.0 | 3.0 | 0.00 | 0.15 | 0.15 | 76 | 1006.0 |
| 20260506014021 | 64 | 239 | 1.0 | 7.0 | 0.00 | 0.15 | 0.15 | 75 | 1006.0 |
| 20260506013831 | 65 | 239 | 1.0 | 6.0 | 0.00 | 0.15 | 0.15 | 75 | 1005.9 |
| 20260506013522 | 65 | 239 | 2.0 | 7.0 | 0.00 | 0.15 | 0.15 | 74 | 1006.2 |
| 20260506013328 | 65 | 239 | 3.0 | 6.0 | 0.00 | 0.15 | 0.15 | 74 | 1006.1 |
| 20260506013051 | 65 | 235 | 2.0 | 7.0 | 0.00 | 0.15 | 0.15 | 74 | 1006.3 |
| 20260506012829 | 65 | 243 | 3.0 | 9.0 | 0.00 | 0.15 | 0.15 | 75 | 1006.1 |
| 20260506012523 | 65 | 276 | 3.0 | 10.0 | 0.00 | 0.15 | 0.15 | 74 | 1006.3 |
| 20260506012329 | 65 | 243 | 4.0 | 9.0 | 0.00 | 0.15 | 0.15 | 75 | 1006.1 |
| 20260506012022 | 64 | 246 | 4.0 | 10.0 | 0.00 | 0.15 | 0.15 | 75 | 1006.2 |
| 20260506011543 | 64 | 272 | 4.0 | 10.0 | 0.00 | 0.15 | 0.15 | 77 | 1006.3 |
| 20260506011329 | 64 | 257 | 5.0 | 9.0 | 0.00 | 0.15 | 0.15 | 78 | 1006.2 |
| 20260506011022 | 63 | 258 | 3.0 | 9.0 | 0.00 | 0.15 | 0.15 | 79 | 1006.4 |
| 20260506010522 | 62 | 246 | 4.0 | 7.0 | 0.00 | 0.15 | 0.15 | 82 | 1006.5 |
| 20260506010328 | 62 | 192 | 2.0 | 6.0 | 0.00 | 0.15 | 0.15 | 83 | 1006.4 |
| 20260506010037 | 61 | 280 | 1.0 | 6.0 | 0.00 | 0.15 | 0.15 | 84 | 1006.4 |
| 20260506005524 | 60 | 280 | 1.0 | 7.0 | 0.00 | 0.15 | 0.15 | 83 | 1006.2 |
| 20260506005331 | 61 | 281 | 3.0 | 7.0 | 0.00 | 0.15 | 0.15 | 82 | 1005.8 |
| 20260506005022 | 60 | 26 | 4.0 | 7.0 | 0.00 | 0.15 | 0.15 | 81 | 1005.1 |
| 20260506004833 | 61 | 69 | 5.0 | 7.0 | 0.00 | 0.15 | 0.15 | 83 | 1004.7 |
| 20260506004536 | 60 | 103 | 2.0 | 5.0 | 0.00 | 0.15 | 0.15 | 83 | 1005.2 |
| 20260506004331 | 60 | 82 | 0.0 | 2.0 | 0.00 | 0.15 | 0.15 | 82 | 1005.4 |
| 20260506004022 | 61 | 0 | 0.0 | 2.0 | 0.00 | 0.15 | 0.15 | 81 | 1005.7 |
| 20260506003523 | 61 | 0 | 0.0 | 4.0 | 0.00 | 0.15 | 0.15 | 82 | 1005.7 |
| 20260506003330 | 61 | 26 | 1.0 | 3.0 | 0.00 | 0.15 | 0.15 | 83 | 1005.5 |
| 20260506003036 | 61 | 26 | 1.0 | 4.0 | 0.00 | 0.15 | 0.15 | 83 | 1005.4 |
| 20260506002829 | 61 | 26 | 2.0 | 3.0 | 0.00 | 0.15 | 0.15 | 84 | 1005.2 |
| 20260506002521 | 60 | 14 | 2.0 | 4.0 | 0.00 | 0.15 | 0.15 | 83 | 1005.1 |
| 20260506002330 | 60 | 31 | 2.0 | 3.0 | 0.00 | 0.15 | 0.15 | 84 | 1005.0 |
| 20260506002022 | 60 | 54 | 1.0 | 3.0 | 0.00 | 0.15 | 0.15 | 83 | 1005.1 |
| 20260506001829 | 60 | 343 | 0.0 | 2.0 | 0.00 | 0.15 | 0.15 | 84 | 1005.1 |
| 20260506001535 | 60 | 0 | 0.0 | 4.0 | 0.00 | 0.15 | 0.15 | 81 | 1005.3 |
| 20260506001023 | 61 | 0 | 0.0 | 5.0 | 0.00 | 0.15 | 0.15 | 76 | 1005.3 |
| 20260506000829 | 63 | 230 | 1.0 | 5.0 | 0.00 | 0.15 | 0.15 | 75 | 1005.2 |
| 20260506000523 | 64 | 246 | 3.0 | 6.0 | 0.00 | 0.15 | 0.15 | 76 | 1005.3 |
| 20260506000330 | 65 | 231 | 3.0 | 6.0 | 0.00 | 0.15 | 0.15 | 76 | 1005.2 |
| 20260506000032 | 64 | 217 | 3.0 | 7.0 | 0.00 | 0.15 | 0.15 | 76 | 1005.4 |
| 20260505235829 | 65 | 261 | 4.0 | 6.0 | 0.00 | 0.15 | 0.15 | 76 | 1005.3 |
| 20260505235522 | 64 | 236 | 4.0 | 7.0 | 0.00 | 0.15 | 0.15 | 76 | 1005.3 |
| 20260505235022 | 64 | 223 | 3.0 | 6.0 | 0.00 | 0.15 | 0.15 | 75 | 1005.1 |
| 20260505234829 | 65 | 233 | 4.0 | 6.0 | 0.00 | 0.15 | 0.15 | 75 | 1005.0 |
| 20260505234538 | 65 | 223 | 3.0 | 7.0 | 0.00 | 0.15 | 0.15 | 74 | 1004.9 |
| 20260505234329 | 65 | 245 | 4.0 | 6.0 | 0.00 | 0.15 | 0.15 | 75 | 1004.8 |
| 20260505234023 | 65 | 243 | 4.0 | 7.0 | 0.00 | 0.15 | 0.15 | 74 | 1004.8 |
| 20260505233830 | 65 | 229 | 5.0 | 6.0 | 0.00 | 0.15 | 0.15 | 74 | 1004.7 |
| 20260505233525 | 65 | 233 | 4.0 | 8.0 | 0.00 | 0.15 | 0.15 | 73 | 1004.8 |
| 20260505233036 | 65 | 213 | 4.0 | 8.0 | 0.00 | 0.15 | 0.15 | 73 | 1004.8 |
| 20260505232832 | 66 | 234 | 4.0 | 8.0 | 0.00 | 0.15 | 0.15 | 73 | 1004.8 |
| 20260505232522 | 65 | 206 | 4.0 | 9.0 | 0.00 | 0.15 | 0.15 | 72 | 1004.9 |
| 20260505232331 | 66 | 207 | 6.0 | 9.0 | 0.00 | 0.15 | 0.15 | 73 | 1004.9 |
| 20260505232023 | 66 | 226 | 5.0 | 11.0 | 0.00 | 0.15 | 0.15 | 72 | 1005.0 |
| 20260505231537 | 66 | 220 | 7.0 | 12.0 | 0.00 | 0.15 | 0.15 | 71 | 1005.0 |
| 20260505231329 | 66 | 221 | 8.0 | 11.0 | 0.00 | 0.15 | 0.15 | 72 | 1004.9 |
| 20260505231021 | 66 | 195 | 8.0 | 12.0 | 0.00 | 0.15 | 0.15 | 71 | 1005.1 |
| 20260505230523 | 66 | 231 | 7.0 | 13.0 | 0.00 | 0.15 | 0.15 | 72 | 1005.0 |
| 20260505230330 | 66 | 216 | 7.0 | 12.0 | 0.00 | 0.15 | 0.15 | 73 | 1004.9 |
| 20260505230054 | 66 | 231 | 6.0 | 16.0 | 0.00 | 0.15 | 0.15 | 72 | 1005.0 |
| 20260505225830 | 66 | 226 | 6.0 | 16.0 | 0.00 | 0.15 | 0.15 | 73 | 1004.9 |
| 20260505225523 | 66 | 189 | 8.0 | 16.0 | 0.00 | 0.15 | 0.15 | 72 | 1005.0 |
| 20260505225325 | 66 | 193 | 10.0 | 16.0 | 0.00 | 0.15 | 0.15 | 73 | 1004.8 |
| 20260505225022 | 65 | 207 | 8.0 | 13.0 | 0.00 | 0.15 | 0.15 | 73 | 1004.9 |
| 20260505224825 | 66 | 185 | 8.0 | 13.0 | 0.00 | 0.15 | 0.15 | 73 | 1004.8 |
| 20260505224539 | 66 | 179 | 7.0 | 13.0 | 0.00 | 0.15 | 0.15 | 73 | 1004.8 |
| 20260505224324 | 66 | 204 | 7.0 | 13.0 | 0.00 | 0.15 | 0.15 | 74 | 1004.7 |
| 20260505224023 | 66 | 207 | 7.0 | 14.0 | 0.00 | 0.15 | 0.15 | 73 | 1004.9 |
| 20260505223820 | 66 | 182 | 8.0 | 14.0 | 0.00 | 0.15 | 0.15 | 74 | 1004.8 |
| 20260505223526 | 65 | 211 | 8.0 | 14.0 | 0.00 | 0.15 | 0.15 | 74 | 1004.9 |
| 20260505223318 | 66 | 195 | 9.0 | 14.0 | 0.00 | 0.15 | 0.15 | 74 | 1004.9 |
| 20260505223043 | 65 | 196 | 7.0 | 14.0 | 0.00 | 0.15 | 0.15 | 74 | 1005.0 |
| 20260505222524 | 65 | 205 | 8.0 | 14.0 | 0.00 | 0.15 | 0.15 | 74 | 1004.9 |